Wind_Speed
12 11 11 12 11 11 11 11 11 11 11 10 10 10 9 9 8 8 8 8 7 7 7 7 7 6 5 4 3 4 4 5 5 5 6 7 8 7 7 7 7 7 8 9 9 9 9 10 11 11 11 11 11 10 11 11 11 11 11 11 11 11 11 12 13 13 13 12 11 11 10 10 10 10 9 9 10 10 11 13 14 14 13 13 12
12 10 10 11 10 9 9 9 9 10 9 9 8 8 8 8 8 8 8 7 7 6 6 6 6 6 5 4 4 4 5 6 6 6 7 8 8 8 7 7 7 7 8 9 9 9 9 11 12 12 12 11 10 10 11 12 12 12 12 12 12 12 12 13 13 14 13 13 12 11 10 10 9 9 9 9 10 11 13 14 14 13 12 12 12
12 11 11 11 10 9 9 9 9 10 9 8 7 7 7 8 8 8 7 6 5 5 5 5 5 5 5 5 5 5 5 5 6 7 8 8 8 7 8 7 6 7 7 8 9 9 10 11 12 12 12 11 11 10 11 12 12 12 12 12 12 13 13 13 13 14 13 13 12 11 11 10 9 9 10 10 11 12 13 13 13 12 12 12 12
11 11 11 11 11 10 9 9 10 10 9 9 8 7 7 7 7 7 6 7 6 6 6 5 5 4 4 4 4 4 5 5 6 7 7 7 7 7 7 7 6 6 7 8 9 10 10 11 12 12 12 12 11 11 11 12 12 12 12 12 13 13 13 14 14 14 14 13 12 11 11 10 10 10 10 10 12 13 13 13 12 12 12 12 11
10 11 11 11 11 11 10 10 10 10 10 9 9 8 8 7 7 7 7 7 7 7 6 5 5 4 3 3 3 3 4 5 6 6 6 6 6 6 6 6 5 5 6 7 9 10 11 12 12 12 12 12 12 12 11 12 12 12 12 13 13 13 14 14 14 14 14 13 12 11 11 10 10 10 11 11 13 13 13 12 12 12 12 11 10
10 11 11 11 11 12 12 12 11 11 10 9 9 8 8 7 7 7 7 7 6 6 5 5 5 4 3 3 3 3 4 5 5 5 4 4 5 6 6 5 5 5 5 7 9 11 12 12 12 12 13 13 13 12 12 12 12 12 12 13 13 13 14 14 14 14 14 13 12 11 10 10 10 11 12 13 13 13 13 12 12 11 11 10 10
10 12 12 11 12 12 13 12 12 11 10 9 8 8 8 8 7 6 6 5 5 5 4 4 4 4 3 3 2 3 3 4 4 4 3 4 5 5 5 5 5 7 6 7 9 11 12 12 12 12 13 13 13 13 12 12 12 12 12 12 13 13 14 14 14 14 13 13 12 11 11 11 12 12 14 14 14 13 13 12 11 11 10 9 9
11 13 13 13 13 13 13 13 12 11 10 9 9 8 7 7 6 5 4 4 3 3 4 4 3 3 3 3 2 3 3 4 4 4 4 4 5 5 5 5 6 8 8 9 10 12 13 13 12 13 13 14 13 13 13 12 12 12 12 13 13 14 14 14 14 14 13 13 12 11 12 13 14 15 15 15 14 13 12 11 11 10 9 9 10
12 13 15 15 15 14 13 13 12 12 11 10 9 8 6 5 4 3 3 2 2 2 2 3 3 3 2 3 3 4 4 5 5 4 3 4 4 5 5 5 6 8 9 9 11 12 12 12 13 13 14 14 13 13 13 13 13 13 12 13 14 14 15 15 14 14 13 13 13 13 14 15 16 16 15 15 13 12 11 10 10 10 10 10 11
13 14 15 16 15 14 14 13 12 11 10 9 8 7 6 5 4 3 3 3 3 2 2 3 3 4 4 4 4 4 4 5 5 4 4 4 4 4 5 6 8 9 10 11 11 12 12 12 13 14 14 13 13 13 13 13 13 13 13 13 14 15 15 15 14 14 14 14 15 15 16 16 16 16 15 14 13 12 11 10 11 11 11 12 11
14 15 16 16 15 14 13 13 12 10 9 8 7 6 6 5 5 4 4 5 5 5 5 5 5 5 5 5 5 4 4 5 4 4 5 5 5 5 6 7 9 11 12 12 12 12 12 12 13 14 13 13 13 13 13 13 13 14 14 14 14 15 15 15 14 14 15 16 16 16 16 16 15 14 14 13 12 11 11 11 12 12 12 12 12
16 16 16 15 14 14 13 12 11 10 8 8 7 7 6 6 6 6 6 6 7 7 7 7 7 6 6 6 5 5 5 6 5 5 6 7 6 6 7 9 11 12 13 12 12 12 12 13 13 13 13 12 12 13 12 13 14 14 15 15 14 15 15 15 15 15 16 17 17 17 16 15 14 13 13 12 12 12 13 13 13 13 12 13 13
17 16 15 14 14 14 13 11 10 9 8 8 8 7 7 7 7 7 8 8 9 9 9 8 8 8 8 8 7 7 7 7 7 7 8 9 9 9 10 11 12 13 13 13 13 13 13 13 13 13 13 12 12 12 12 13 14 15 16 16 16 16 16 16 17 16 16 17 17 16 15 14 13 13 12 12 12 13 14 14 13 13 13 13 13
18 17 15 14 14 13 12 11 10 9 9 9 9 8 8 8 8 9 9 10 10 9 9 10 10 10 10 10 10 10 10 9 9 10 10 11 11 12 12 13 13 14 14 14 13 14 14 14 14 14 13 12 12 12 12 13 14 15 17 17 17 17 18 18 17 17 17 16 16 15 14 14 13 12 13 13 14 14 14 14 14 14 14 13 13
17 17 15 14 13 12 11 11 11 11 10 10 9 9 9 10 10 11 11 11 10 10 10 11 10 10 11 11 11 12 11 11 11 12 12 12 13 14 14 14 14 14 14 14 15 15 15 15 14 14 13 12 12 12 13 14 15 16 17 18 18 18 19 19 17 16 16 15 15 15 14 14 13 13 13 14 14 14 14 14 14 14 13 12 12
17 16 15 14 13 11 11 11 12 12 11 10 10 10 11 11 12 12 12 12 11 10 10 11 12 12 12 12 13 13 13 13 13 13 13 14 14 14 15 15 15 15 15 15 16 16 16 15 14 14 13 13 13 14 14 16 16 17 18 18 18 18 19 18 16 15 15 15 14 14 14 14 14 14 14 15 15 15 15 14 14 13 12 12 12
17 15 14 14 13 12 12 12 12 12 12 11 11 12 12 12 13 13 13 12 12 12 12 12 13 13 13 13 14 14 14 14 14 14 14 14 14 15 15 15 15 15 16 16 17 17 16 15 14 14 15 15 15 15 16 17 18 18 19 19 18 17 17 17 15 14 14 14 14 14 14 14 14 14 15 15 15 15 14 13 13 12 12 12 13
16 15 14 14 13 13 13 13 13 13 13 12 12 12 13 13 14 14 13 13 13 12 13 13 13 13 13 13 14 14 14 14 14 14 13 13 14 15 15 15 15 16 17 17 17 16 15 15 15 16 17 17 17 18 18 19 19 19 19 19 18 17 16 16 15 14 14 14 14 14 14 15 15 15 14 14 14 14 13 13 13 12 13 13 14
15 14 14 14 14 14 14 14 13 13 13 12 12 12 13 14 14 14 13 14 13 13 13 13 13 13 14 14 14 14 14 14 14 14 14 13 14 15 16 16 17 18 18 17 16 15 15 16 17 18 19 19 19 19 19 19 19 19 18 18 17 16 16 15 14 14 14 14 15 15 15 15 15 14 14 14 14 13 13 13 13 13 14 15 15
15 15 14 14 14 15 14 14 13 13 13 13 13 13 13 15 15 14 14 14 13 12 12 13 13 13 13 14 14 15 14 14 14 14 15 15 16 17 18 18 19 19 18 17 16 16 16 17 18 19 20 21 20 20 19 19 19 18 17 16 16 15 15 15 14 14 14 15 15 15 15 15 15 14 14 14 13 13 13 13 14 15 15 15 15
15 15 15 14 15 15 14 13 12 13 13 14 14 14 14 15 15 14 14 13 12 12 12 12 13 12 13 14 14 14 14 14 15 15 16 17 18 19 20 20 20 18 17 16 17 17 17 18 19 19 20 21 20 19 18 18 17 17 16 15 16 16 16 15 14 15 15 16 16 15 15 15 15 15 14 13 13 13 14 14 15 16 16 15 15
15 15 15 14 15 15 14 13 12 13 14 14 14 14 14 15 15 15 14 13 12 12 11 12 12 13 13 13 14 14 14 15 15 16 17 18 19 20 20 20 18 17 16 17 18 18 19 19 19 19 20 20 19 18 17 16 16 16 15 15 17 17 17 15 15 16 17 16 16 16 15 16 15 14 14 13 14 14 15 16 16 16 16 15 14
14 15 14 14 14 15 15 14 13 13 14 14 14 14 13 14 15 14 14 13 13 12 12 12 12 13 13 14 14 14 15 15 15 17 18 18 19 19 18 18 17 17 17 18 19 19 19 19 19 19 18 18 18 17 17 16 16 15 15 17 18 17 16 15 15 17 17 17 17 16 16 16 15 14 14 14 15 15 16 16 16 16 15 15 14
15 14 14 14 13 14 15 15 14 14 14 15 14 14 12 13 13 13 13 13 13 13 12 12 13 14 15 15 15 15 16 16 16 17 18 18 18 18 17 17 17 17 18 19 20 19 19 19 18 18 17 17 16 15 15 16 16 16 16 17 18 16 15 14 15 17 17 17 17 16 16 15 15 15 15 16 16 16 16 16 16 16 15 14 13
14 14 13 14 13 13 14 14 14 14 15 15 14 13 12 12 12 12 12 12 13 13 13 14 14 14 15 16 16 16 17 17 17 17 18 18 18 17 17 18 18 18 19 20 20 19 18 18 17 16 15 15 14 14 14 15 16 16 16 17 17 15 14 14 15 16 17 17 16 16 16 16 16 16 17 17 17 17 16 16 16 15 14 13 12
13 13 13 13 13 13 13 14 14 14 14 14 14 13 12 12 12 12 12 13 14 14 14 15 15 15 16 16 17 18 18 19 18 18 18 18 18 18 18 19 19 19 19 19 19 18 18 18 17 15 14 13 14 15 15 14 14 15 16 17 16 14 13 14 16 16 17 17 16 16 16 17 17 17 18 17 17 17 16 16 15 14 13 13 12
13 13 13 13 13 13 13 13 13 14 14 14 13 13 12 12 12 13 13 14 14 14 15 15 16 16 17 17 18 19 20 20 20 19 19 18 19 19 19 19 19 19 18 18 18 18 17 18 17 15 13 12 13 14 15 14 13 14 15 16 15 13 13 14 16 16 16 16 16 17 17 18 18 18 18 17 17 17 16 15 14 13 13 12 11
13 13 12 12 13 13 13 13 13 14 13 13 13 13 12 13 13 14 14 14 14 14 14 15 16 16 17 18 19 20 21 21 20 19 19 18 19 19 19 19 18 18 17 17 18 18 16 16 15 15 13 12 12 12 13 14 14 13 14 15 14 13 12 14 15 15 16 16 17 17 18 18 18 17 17 17 17 17 16 15 14 13 11 11 10
13 12 12 12 13 13 12 13 13 13 13 13 13 12 12 13 14 14 14 14 15 14 14 14 16 16 16 17 19 20 20 20 20 18 18 18 17 17 17 17 17 17 17 17 18 18 16 15 15 14 14 13 12 11 11 12 14 14 14 14 13 12 13 14 14 15 16 17 17 17 17 17 17 17 17 17 17 16 15 14 13 11 11 10 10
13 12 11 12 12 12 12 12 12 13 13 13 13 12 12 13 14 15 14 14 14 14 13 14 15 15 15 16 17 18 18 18 18 17 17 16 16 16 16 15 16 16 16 17 17 17 15 14 14 14 14 14 13 11 10 11 12 13 13 13 12 12 13 14 14 14 16 17 18 17 16 16 16 17 17 16 15 15 14 12 11 10 10 10 10
13 12 11 12 12 12 12 12 12 12 12 13 13 12 12 13 14 15 15 14 14 14 13 13 14 14 15 15 15 16 17 17 16 16 16 16 15 15 15 15 15 15 16 16 16 16 15 15 15 14 14 13 12 12 10 9 10 11 12 12 12 13 14 14 14 14 15 16 17 16 15 14 15 16 16 15 14 13 12 11 9 9 9 9 10
13 12 12 11 11 12 12 12 12 13 13 13 14 13 13 13 13 14 14 14 14 13 13 13 13 12 13 13 13 14 14 15 14 14 14 14 14 14 15 15 15 15 14 15 15 15 14 14 15 14 13 12 12 11 9 8 8 9 10 11 12 13 13 13 13 14 15 15 15 15 14 13 14 14 13 13 12 12 11 9 8 8 9 10 11
13 12 12 12 11 11 11 12 13 13 13 14 14 14 13 13 13 13 13 13 13 13 12 12 12 11 11 12 12 12 12 13 13 14 13 13 13 13 13 14 14 14 14 14 14 13 14 14 14 14 13 12 11 10 8 7 7 8 9 11 12 12 13 12 13 13 14 14 14 13 13 13 13 12 11 10 10 10 9 8 7 9 10 11 13
13 13 13 12 12 11 11 12 13 13 13 13 13 13 13 13 13 13 12 12 12 12 12 12 12 11 11 11 12 11 11 12 13 13 13 12 12 12 12 12 12 13 13 12 12 13 14 14 14 13 12 12 11 10 7 6 6 7 8 10 12 12 12 12 11 12 13 13 13 12 12 12 11 10 9 8 8 8 8 8 9 11 12 13 15
14 14 13 12 12 11 11 12 13 13 13 14 13 13 13 13 13 13 12 12 12 12 12 12 12 11 11 12 12 11 11 11 12 13 13 12 12 12 11 11 11 12 12 11 11 12 13 13 12 12 12 12 11 9 6 5 5 6 8 10 11 12 12 12 11 11 12 12 12 10 10 10 9 9 8 7 7 8 9 9 10 12 13 15 16
14 14 14 13 12 12 11 12 12 13 13 14 13 13 12 12 12 12 12 12 12 12 12 12 11 11 11 11 11 11 11 11 11 12 13 13 12 11 11 11 11 11 11 11 10 11 11 11 10 10 11 11 11 9 6 5 5 5 8 9 10 11 11 11 10 9 10 11 11 9 8 8 8 7 7 7 7 8 9 9 11 13 14 16 17
13 14 14 14 13 12 12 12 12 13 13 13 13 12 12 12 12 12 12 12 13 12 12 11 11 11 11 11 11 11 11 11 11 11 11 11 11 11 11 11 10 11 11 10 10 10 10 10 10 10 10 10 11 9 6 5 5 5 7 9 9 10 10 10 9 8 8 9 10 9 7 6 7 7 6 6 6 8 9 9 11 13 14 16 17
14 14 14 14 13 12 12 12 12 13 13 13 12 12 11 11 11 11 11 12 12 12 11 11 11 12 12 11 11 12 11 12 12 11 10 10 11 10 10 10 10 10 10 10 10 10 9 9 10 10 9 10 11 10 7 5 5 5 6 8 8 9 9 8 7 7 6 6 7 8 6 4 6 6 5 5 6 7 8 9 10 12 14 15 16
13 14 14 14 13 12 12 12 12 12 12 12 12 12 11 11 11 11 11 11 11 11 11 11 12 12 12 11 12 12 12 12 12 12 11 10 10 10 10 10 9 9 10 9 9 9 9 9 9 9 9 10 10 9 7 5 5 5 6 7 7 7 8 7 6 5 5 4 4 6 6 4 4 5 5 5 6 7 8 8 9 11 13 14 15
13 13 14 14 13 13 13 12 12 12 12 12 12 12 11 11 12 11 11 10 10 10 10 11 11 11 11 12 12 12 12 12 12 12 12 11 11 10 10 10 9 9 9 9 9 8 9 8 8 8 8 9 9 9 8 6 6 6 6 7 7 7 7 6 6 5 4 4 3 3 4 3 2 4 4 5 5 6 7 8 9 11 13 14 15
14 14 14 14 14 14 14 13 13 12 12 12 13 13 12 12 12 12 11 11 11 10 10 10 10 11 11 11 12 12 13 13 13 12 12 11 11 11 11 10 10 9 9 9 8 8 9 8 8 7 8 9 8 8 9 7 7 7 6 6 6 6 6 6 5 5 4 4 3 2 3 3 2 3 4 4 4 6 7 8 9 10 12 14 15
14 14 14 14 14 15 15 14 14 13 13 13 14 14 13 13 12 12 12 12 11 11 10 10 10 10 11 11 12 12 13 13 13 12 12 12 11 11 11 11 11 10 10 9 8 8 8 8 8 8 9 9 8 8 8 7 6 7 7 7 6 5 5 5 4 4 3 3 3 1 2 3 2 3 4 4 5 6 7 8 9 11 12 14 15
14 14 14 13 14 15 15 15 14 14 14 14 14 14 14 14 13 13 13 13 12 11 11 10 10 10 10 11 11 12 12 12 12 12 12 12 12 12 11 11 11 11 10 9 8 8 8 8 8 8 8 9 9 9 9 7 6 6 7 7 6 5 5 4 4 3 2 2 2 2 1 3 3 3 4 5 6 7 8 8 10 11 13 14 15
13 14 14 13 13 14 14 15 15 14 15 15 15 15 14 14 13 13 13 13 12 11 12 12 11 10 10 11 11 11 11 11 12 12 12 12 12 12 12 11 10 10 10 10 9 9 9 9 9 8 8 9 8 9 9 9 7 6 5 5 5 5 5 4 3 2 2 2 1 1 1 3 4 4 5 5 6 7 9 10 11 12 14 15 15
12 13 13 13 13 13 13 13 14 14 14 14 15 15 15 14 14 13 13 13 12 12 12 12 12 11 11 11 11 10 10 10 11 11 11 12 12 12 12 11 10 10 10 10 10 9 9 9 9 9 9 9 8 8 8 9 9 8 6 5 4 3 3 4 3 2 1 1 2 3 3 4 5 6 6 6 7 8 9 11 12 13 14 15 15
11 12 13 13 13 13 12 12 12 12 13 14 14 15 14 14 13 13 13 13 12 12 12 12 11 11 11 11 11 10 10 9 9 10 10 10 11 11 12 11 11 10 10 10 10 10 10 10 10 10 9 9 9 8 8 8 9 9 8 6 4 3 2 2 2 1 1 1 2 3 4 5 6 6 7 8 9 10 10 11 12 13 14 14 15
11 12 12 13 13 13 12 12 12 11 12 13 13 14 14 13 13 13 13 13 12 12 11 11 10 10 10 10 10 10 9 9 8 8 8 8 9 9 10 11 11 11 10 11 11 11 11 11 10 11 10 10 10 9 8 8 8 8 7 7 5 4 2 3 2 0 1 1 2 3 4 5 7 8 8 8 9 10 10 11 12 13 13 13 13
11 12 12 13 13 13 12 12 12 11 12 12 13 13 13 12 12 12 12 12 12 12 11 11 10 10 9 9 9 9 9 8 7 7 7 7 7 7 8 9 10 10 10 11 11 11 12 12 11 11 11 11 10 9 8 7 7 7 6 7 6 5 4 3 3 2 1 2 2 3 3 3 5 7 9 8 9 10 11 11 12 13 12 12 11
11 11 11 12 12 12 12 12 12 11 12 12 12 13 12 12 11 11 11 11 11 11 11 10 10 9 9 8 8 8 8 8 7 6 6 6 6 6 6 7 8 8 8 9 10 10 10 11 11 11 11 11 10 10 9 8 7 6 6 6 6 5 4 3 3 2 1 1 1 3 3 3 4 6 7 8 8 9 10 11 12 12 11 10 10
11 10 10 11 12 12 12 11 11 11 11 11 12 12 12 11 10 10 10 10 10 10 10 9 9 9 8 7 7 7 7 7 7 6 5 5 5 5 5 5 6 6 7 8 8 8 9 9 10 10 10 10 9 9 10 9 8 7 6 5 4 4 3 3 2 1 1 1 1 2 3 4 5 5 5 5 6 7 8 9 10 10 9 9 10
11 11 10 10 11 11 11 11 10 11 11 11 10 11 11 10 9 9 10 9 8 9 9 8 8 8 7 6 6 6 6 6 6 5 5 5 4 4 4 5 5 5 6 6 7 7 7 7 8 8 8 9 8 8 9 9 8 7 6 5 4 3 3 2 1 1 2 1 1 2 3 4 5 5 5 5 6 6 7 8 9 9 9 10 10
Wind_Direction
127 127 124 120 119 118 120 124 127 126 124 125 128 130 134 142 150 159 168 169 168 162 151 143 137 131 132 136 131 119 114 117 122 122 114 109 107 103 98 98 102 105 108 109 109 113 120 123 125 127 129 130 130 127 120 113 109 104 101 101 101 103 105 107 110 111 111 112 112 109 106 103 101 99 99 99 100 103 106 108 108 106 104 102 100
124 122 119 115 116 116 117 117 116 116 116 119 125 132 141 148 152 157 159 156 154 148 139 135 133 131 136 144 141 124 116 117 121 119 109 105 103 98 93 94 97 102 108 110 111 117 124 126 130 132 134 135 131 125 118 111 106 103 103 104 107 109 111 112 112 112 112 113 113 111 108 106 103 100 99 100 102 106 108 108 107 105 102 99 97
121 120 117 114 116 115 114 112 111 112 116 122 128 135 144 149 151 150 146 140 135 132 127 127 128 129 134 140 138 124 112 108 110 105 102 106 105 98 94 95 96 102 109 111 116 121 127 129 132 133 134 133 127 120 115 110 107 105 105 106 109 112 115 117 116 114 113 114 114 113 110 106 103 100 100 100 103 108 110 108 106 103 100 96 94
118 117 114 112 111 112 111 111 111 114 120 126 129 135 142 145 145 141 135 129 128 128 123 123 125 128 133 136 131 118 108 101 99 94 97 106 109 102 99 104 106 107 107 111 117 123 128 131 133 133 132 129 124 119 115 113 111 109 108 109 111 114 118 119 119 117 116 116 116 114 111 108 104 102 102 104 108 111 111 107 103 100 98 96 96
114 112 108 108 110 113 114 114 115 118 123 125 128 133 137 136 132 130 125 123 123 124 124 132 135 138 141 136 127 111 102 97 94 94 102 112 111 107 105 114 118 115 113 115 120 125 130 132 133 133 129 126 121 118 116 113 111 110 110 112 114 117 120 120 119 117 117 118 117 116 114 109 104 102 103 108 112 112 109 105 102 100 100 99 99
112 108 105 108 113 117 118 119 121 122 124 124 126 129 130 127 122 121 120 121 124 127 135 149 151 152 154 145 137 115 98 94 96 100 114 122 115 109 110 122 131 127 126 128 126 128 132 132 133 131 126 122 119 116 114 112 109 108 109 111 114 117 120 120 119 118 118 119 119 118 115 108 104 103 107 112 113 111 108 105 104 102 100 99 96
111 108 108 113 117 118 120 120 121 121 122 121 122 124 125 122 122 124 125 128 135 143 156 168 166 163 155 143 142 129 114 106 111 120 131 130 116 109 114 128 139 137 139 139 133 131 132 132 130 127 123 119 115 113 111 110 108 106 106 108 111 114 117 119 120 119 119 119 118 116 113 109 108 108 111 114 113 111 108 106 105 101 98 94 89
114 113 115 120 122 122 122 120 119 120 119 118 120 123 124 125 127 129 130 137 150 169 186 186 179 177 163 150 163 160 148 140 148 158 148 131 117 116 124 133 142 144 146 144 137 133 132 130 127 123 119 115 112 109 107 106 105 105 106 109 112 114 116 120 120 119 118 117 115 113 111 111 111 112 113 114 113 110 108 106 102 97 92 88 86
116 117 120 124 125 122 119 117 117 118 119 119 122 125 126 125 122 123 126 137 154 175 189 183 184 187 174 171 178 174 165 158 161 157 136 120 115 125 138 143 146 147 149 144 137 133 129 126 123 119 115 111 109 107 105 104 105 107 111 115 116 116 118 120 120 119 118 115 112 111 113 113 113 113 114 113 111 109 106 102 96 92 90 90 91
114 116 120 121 120 116 113 110 111 113 117 119 120 123 121 113 103 103 105 110 123 122 123 142 157 163 163 168 168 168 160 151 141 122 116 120 122 137 148 150 148 146 146 140 133 129 127 124 120 117 114 111 108 106 105 106 106 109 114 118 118 119 119 118 116 116 115 112 110 112 114 113 113 113 112 111 108 104 101 98 95 95 95 95 95
111 113 115 115 114 112 109 106 107 110 114 115 113 110 103 95 85 80 84 91 101 105 106 113 125 136 144 146 145 145 131 121 114 114 128 135 140 151 153 148 141 142 141 134 128 127 126 123 120 117 115 111 107 105 105 106 108 110 113 116 118 117 115 113 113 112 112 112 112 113 113 111 111 111 109 106 103 101 99 98 97 97 97 97 97
111 111 112 113 114 111 107 104 105 107 107 105 100 93 89 88 82 77 80 83 86 92 96 98 103 109 116 116 116 117 112 111 118 131 136 134 141 149 145 137 134 137 135 129 127 126 124 122 121 119 115 110 104 104 106 107 110 113 115 115 117 115 112 112 111 111 112 113 113 113 111 110 110 107 104 101 100 101 100 99 98 98 98 100 102
112 112 113 114 114 110 107 106 107 107 102 99 96 89 86 85 79 76 75 74 76 84 91 96 102 105 110 112 114 117 116 119 126 131 129 126 129 131 130 127 128 132 129 126 126 125 122 120 120 119 115 109 106 107 109 109 112 115 117 117 117 116 113 112 111 112 113 114 114 112 111 109 106 103 101 101 101 101 100 99 99 99 101 104 105
114 115 115 115 114 111 109 110 110 107 100 94 90 84 82 80 76 76 76 76 80 89 98 103 107 111 114 116 119 120 118 119 122 122 119 119 120 120 121 124 127 128 126 125 125 123 121 120 118 117 115 111 110 111 111 111 113 114 115 115 115 115 113 112 113 115 115 113 111 108 106 103 100 100 101 101 100 99 99 99 100 102 104 105 105
117 117 117 117 113 110 109 109 105 99 94 87 82 80 80 81 80 82 84 86 91 98 105 108 109 111 113 114 115 114 114 114 114 114 115 117 117 118 120 124 126 125 124 125 124 123 121 119 118 117 115 113 112 113 113 113 113 111 110 110 111 113 112 110 112 113 111 109 106 103 101 99 99 100 100 99 98 98 99 100 102 103 103 103 101
116 116 115 114 109 107 106 102 99 95 91 87 83 83 84 87 88 89 92 95 100 105 107 107 108 110 110 110 110 109 108 107 107 111 114 116 117 118 120 122 123 123 124 124 123 122 120 119 117 116 115 114 113 113 112 110 109 108 107 108 108 109 108 107 107 107 105 103 102 100 99 99 99 99 98 97 98 99 100 101 101 100 99 99 98
114 113 112 110 108 107 102 97 95 94 92 88 85 85 89 92 92 93 97 101 104 105 105 106 108 108 106 104 103 103 103 103 106 111 114 116 117 117 118 119 120 122 122 122 122 121 119 117 116 115 115 114 113 111 109 108 108 107 107 106 106 105 104 103 103 101 101 101 100 99 98 98 97 96 96 97 99 100 99 98 96 96 96 97 99
113 112 111 108 106 103 100 97 94 93 91 89 87 88 91 95 95 96 99 101 101 101 102 103 104 104 102 100 100 101 102 104 107 110 112 113 115 116 117 119 121 122 122 121 121 119 116 114 114 115 114 111 109 108 108 108 108 107 105 104 103 102 101 100 100 100 101 100 99 98 97 96 96 95 96 97 98 96 94 93 93 96 98 99 101
112 108 106 106 104 100 98 96 94 92 91 91 91 93 96 97 97 98 99 100 100 100 100 101 102 102 102 102 103 103 104 106 107 107 108 110 113 116 118 121 123 122 121 119 118 115 113 112 113 114 111 108 107 107 107 106 105 104 103 102 102 101 99 100 101 102 102 101 99 98 97 96 95 96 96 95 94 92 92 93 96 98 100 100 100
107 104 103 104 102 98 96 95 94 94 93 95 97 98 98 98 98 98 99 100 100 100 100 101 102 101 102 102 103 103 104 105 107 107 106 108 113 117 119 121 121 121 120 119 116 113 111 111 111 111 109 107 106 105 104 104 103 102 102 102 102 100 99 99 102 103 103 101 99 98 97 96 96 94 93 91 91 92 95 97 99 100 100 101 101
105 104 104 103 101 99 97 96 97 96 95 96 98 98 96 96 97 97 97 97 96 97 99 100 99 98 99 100 100 101 104 107 109 109 107 109 113 117 118 119 120 120 120 119 116 114 113 112 111 109 107 106 105 103 102 101 101 100 101 102 100 98 97 99 103 104 102 100 99 97 96 94 92 89 88 90 93 96 98 99 100 101 101 102 103
105 106 106 105 103 102 99 98 99 97 96 96 96 95 94 94 95 96 95 93 92 92 94 94 93 95 97 99 101 103 107 111 112 110 109 110 113 116 118 119 120 121 119 117 116 116 116 114 110 107 105 104 104 103 101 100 99 99 101 101 98 97 98 102 104 103 101 99 97 94 91 89 87 88 90 93 96 98 98 99 99 101 102 103 102
108 105 106 106 104 102 100 98 97 96 97 97 95 94 94 94 94 95 94 92 90 89 90 91 92 96 101 104 105 105 108 112 111 109 111 113 114 115 116 117 118 118 117 116 116 116 114 111 108 106 104 103 103 103 102 101 100 101 101 99 98 98 101 104 102 100 99 96 93 90 88 88 89 92 94 95 96 97 97 97 98 99 100 100 98
111 106 105 104 101 98 97 96 96 96 98 96 94 93 94 94 93 92 90 90 89 89 89 89 91 97 103 106 106 106 109 110 110 110 111 112 112 113 114 115 117 117 116 115 114 112 109 106 104 103 103 103 103 103 104 104 103 102 101 99 99 100 103 103 100 99 97 94 92 90 90 92 94 95 96 96 96 96 97 97 98 98 98 97 95
113 110 107 104 99 96 95 96 96 96 96 94 92 92 92 93 93 93 91 90 91 90 88 87 87 90 96 99 101 103 104 104 105 106 108 109 110 112 115 117 117 116 115 113 111 108 105 102 99 98 100 101 101 100 99 100 103 105 103 101 101 104 106 105 101 100 98 95 94 94 95 95 95 96 96 96 96 97 98 98 98 98 97 95 92
115 110 106 105 102 99 97 95 95 95 94 92 89 88 90 93 94 94 94 94 94 92 90 89 88 88 90 93 96 99 100 100 102 104 106 109 112 115 117 117 116 113 112 111 108 104 102 99 95 94 95 97 97 96 94 95 101 107 106 104 105 109 110 107 104 102 100 99 99 98 97 96 95 95 95 96 97 98 98 98 98 97 94 91 87
115 111 109 108 105 101 99 97 97 94 93 91 88 88 90 93 93 93 95 96 96 95 95 93 92 92 94 96 98 99 99 100 101 102 105 108 112 114 115 114 111 109 108 106 104 102 100 98 97 94 92 92 94 95 98 100 104 108 107 106 110 114 112 109 108 106 104 103 101 100 97 95 94 94 95 96 96 96 97 96 95 92 89 86 82
115 113 112 109 104 100 99 98 96 93 92 92 91 92 95 97 96 96 97 98 98 99 100 98 96 97 98 99 99 99 99 99 99 100 103 105 107 109 109 109 107 106 105 102 100 97 95 95 95 93 89 87 88 93 100 106 109 108 106 108 114 117 114 111 111 109 107 104 101 98 97 96 95 94 94 93 93 93 93 92 90 88 85 80 74
116 115 111 106 101 99 99 98 97 96 96 97 97 97 99 102 101 102 102 102 103 102 103 102 99 98 96 95 96 97 96 96 97 98 100 102 103 103 103 103 103 103 101 99 95 91 88 90 90 89 87 83 82 85 96 107 110 110 109 112 118 120 117 114 112 111 108 105 101 98 97 97 96 95 92 91 90 90 89 88 86 84 79 73 65
119 117 110 103 98 97 99 100 101 101 101 101 101 101 102 103 105 107 108 106 104 103 103 103 100 97 94 93 94 96 96 96 97 97 96 97 99 100 100 101 102 102 100 98 95 92 88 88 87 86 85 84 82 80 86 101 111 114 117 119 123 122 120 117 114 111 108 104 102 100 99 98 96 94 92 91 90 89 88 85 82 77 70 63 55
124 119 110 103 99 98 100 103 105 104 103 102 103 106 106 105 107 109 109 108 105 103 104 102 100 99 97 96 95 95 96 96 95 94 95 97 100 101 103 102 102 102 101 99 96 93 91 88 86 83 82 83 84 85 89 101 112 117 121 124 127 127 124 121 118 114 108 105 104 103 101 98 96 94 94 94 93 90 87 83 76 66 57 48 41
127 122 115 109 104 100 100 104 106 104 103 103 104 108 109 108 108 109 110 109 107 107 106 105 103 101 101 99 95 94 95 95 93 91 92 95 98 100 102 102 100 100 100 98 95 94 93 89 86 83 81 83 88 93 97 108 117 119 122 127 132 131 127 124 120 115 110 108 107 106 104 100 98 97 97 97 95 91 87 78 65 51 40 33 27
127 124 120 115 110 105 103 104 105 104 103 103 104 105 107 108 109 108 109 110 110 110 109 108 107 106 104 101 97 96 96 95 92 89 88 90 94 97 101 103 103 102 99 97 98 97 94 87 84 82 82 84 88 91 97 112 119 119 125 133 136 131 126 122 119 115 112 110 109 108 107 104 101 101 99 94 90 85 79 66 48 34 26 21 17
127 125 121 118 114 109 108 106 105 104 104 103 103 103 103 106 107 107 107 108 110 112 113 111 111 110 107 104 103 101 99 98 98 97 96 96 97 99 103 104 103 100 97 96 99 99 94 88 83 82 81 82 84 89 99 113 116 118 128 137 137 131 126 122 120 118 115 113 113 112 110 108 106 103 97 86 77 68 60 47 32 23 18 16 14
128 125 123 120 116 112 110 109 108 108 107 105 103 102 103 104 105 105 106 108 110 110 110 110 112 112 110 108 107 105 102 102 102 103 103 101 100 102 103 103 102 101 98 97 98 99 98 94 88 86 87 86 88 93 100 105 107 120 131 138 137 132 129 126 125 124 119 117 116 115 112 108 105 99 92 79 65 55 45 34 25 20 16 15 16
130 126 124 122 119 117 115 112 111 111 107 105 104 103 104 105 104 104 107 109 109 107 106 109 111 111 109 108 107 104 103 101 100 102 104 104 103 103 105 106 108 108 107 105 103 102 101 97 89 86 88 91 92 94 98 100 99 116 131 137 136 132 131 130 132 131 124 121 119 116 109 105 101 91 82 71 58 48 38 29 23 20 16 15 18
129 125 123 124 123 121 118 116 113 111 107 104 103 104 105 106 105 107 109 109 109 109 109 110 110 107 105 104 103 102 102 103 102 102 103 106 107 106 108 110 112 113 113 114 112 108 102 94 85 79 82 91 93 90 88 91 94 112 132 138 138 136 135 135 137 135 127 122 120 117 109 101 100 91 77 66 55 44 33 25 20 17 16 14 16
130 127 125 124 123 121 120 117 114 111 108 106 104 103 104 106 107 107 108 109 111 112 112 111 108 105 102 101 101 101 102 105 106 105 101 103 106 108 110 110 111 113 115 117 117 113 106 99 93 86 85 88 91 92 88 87 95 112 133 141 142 139 138 141 140 134 128 122 114 114 115 98 92 94 80 60 49 39 30 23 15 11 12 11 12
132 130 127 124 123 122 120 116 114 112 110 109 106 103 104 106 107 106 106 108 110 112 111 110 108 106 105 103 103 103 104 104 103 103 100 99 101 104 106 107 110 113 114 114 113 112 109 104 100 97 95 93 92 95 96 99 107 120 141 148 149 145 143 148 145 136 134 128 104 99 109 103 74 75 69 54 41 33 24 15 9 5 5 6 6
135 133 129 127 126 126 124 120 116 115 114 113 109 107 107 109 109 108 108 109 111 112 110 109 108 107 107 106 105 106 106 103 100 98 99 98 95 95 98 101 105 109 112 113 113 114 113 111 107 104 102 99 99 102 105 112 117 124 144 154 158 156 149 154 156 151 148 136 107 70 85 97 68 49 54 45 28 23 17 5 359 358 359 359 358
139 138 136 134 131 129 128 125 121 119 118 116 113 111 111 112 112 109 106 108 110 110 109 108 107 106 105 104 104 104 105 104 100 96 96 96 95 92 94 99 102 104 108 111 115 120 120 120 118 114 107 101 103 111 117 123 122 122 137 151 160 160 151 159 166 159 156 138 118 49 29 56 52 19 28 32 11 7 5 354 349 350 350 349 348
142 144 142 138 134 131 130 127 122 120 119 117 115 114 114 115 116 112 106 106 108 108 107 105 104 103 101 100 100 100 101 101 99 96 93 93 94 94 95 99 102 102 102 105 113 119 122 126 125 121 116 109 106 109 115 119 117 118 130 145 153 154 152 164 174 170 161 139 129 116 339 356 17 353 353 1 352 351 350 342 341 342 339 338 339
145 146 145 141 136 133 132 128 123 122 122 122 120 116 116 117 116 113 108 107 107 107 107 105 102 100 98 96 96 96 96 96 95 93 91 90 92 94 94 97 99 101 103 107 114 119 123 126 125 122 120 117 114 114 115 113 106 110 126 140 144 143 146 161 178 175 157 160 170 169 280 317 334 335 330 333 332 332 332 330 329 328 328 331 335
149 147 145 142 139 136 134 130 126 127 128 127 125 121 119 120 118 116 113 111 109 110 110 109 106 103 100 98 96 96 96 95 93 91 90 89 89 91 93 95 98 102 106 110 113 119 125 126 125 124 120 118 119 120 122 120 114 111 121 132 135 138 147 161 168 162 165 200 265 277 258 283 297 307 311 313 313 315 318 319 317 317 321 327 331
154 150 148 144 141 139 135 131 130 133 133 131 129 126 126 126 125 123 120 117 115 114 113 111 111 110 107 105 102 101 101 99 97 95 94 92 91 92 94 95 97 99 104 107 110 117 123 126 127 126 124 124 125 124 128 130 128 127 131 130 126 130 150 168 159 142 173 244 321 322 313 299 291 293 298 302 306 310 314 315 314 313 317 324 328
162 158 153 149 146 143 139 134 135 136 134 132 131 132 131 130 130 130 128 124 120 118 115 113 114 114 113 112 110 108 107 105 102 100 98 96 95 96 98 99 99 100 105 109 112 116 120 126 130 132 132 131 130 132 138 142 140 138 136 129 119 115 144 180 173 86 65 324 311 309 317 319 308 300 301 307 309 310 313 315 314 314 319 326 328
169 167 163 158 154 151 146 140 139 139 136 136 135 134 133 131 130 132 132 130 126 123 120 118 117 115 116 117 117 116 116 113 109 107 103 100 100 98 99 101 102 105 108 109 110 114 119 126 132 134 135 134 133 139 147 150 146 138 129 122 116 116 137 171 184 124 95 220 269 295 310 313 311 309 311 316 314 310 309 308 308 315 324 328 328
174 173 170 165 162 159 154 149 147 144 142 142 140 138 137 134 134 135 135 133 132 131 129 128 125 123 123 120 120 123 125 123 119 115 112 108 105 102 101 102 104 106 107 108 110 113 117 122 127 131 132 132 133 140 147 146 140 133 128 129 134 139 147 158 168 175 175 198 234 258 275 293 302 306 311 316 314 309 306 304 308 318 327 329 333
180 178 174 169 167 166 162 158 154 151 149 149 146 145 144 141 140 139 136 137 137 135 135 135 133 133 131 126 125 126 125 126 125 121 120 119 116 111 109 107 106 107 104 103 104 107 113 118 123 127 129 131 134 137 139 137 136 142 144 147 154 154 151 152 158 165 154 139 198 247 264 274 278 286 298 308 307 303 303 304 309 316 324 329 336
186 180 177 173 171 171 169 165 159 154 153 152 152 151 148 148 147 143 141 145 144 138 137 137 136 137 135 132 134 131 125 123 122 121 120 123 125 123 119 115 112 112 107 102 101 103 107 113 119 123 125 129 135 137 138 141 147 157 162 166 177 170 154 149 144 147 140 131 174 254 275 276 277 279 286 294 299 300 302 303 306 314 324 332 338
195 186 184 182 176 175 177 173 166 160 154 156 159 155 153 157 155 150 150 153 150 144 143 140 137 137 136 136 140 139 135 131 128 130 129 127 130 131 131 128 125 124 115 109 109 108 107 112 119 124 127 131 138 141 144 149 153 161 167 177 193 193 173 154 139 183 212 209 206 227 244 259 275 287 289 290 291 297 302 301 303 313 324 329 337
Height
5900 5900 5900 5900 5900 5900 5900 5900 5900 5900 5901 5901 5901 5901 5902 5903 5904 5905 5905 5906 5906 5906 5906 5906 5906 5907 5907 5908 5909 5908 5908 5908 5908 5909 5909 5909 5909 5909 5909 5909 5908 5908 5908 5908 5908 5909 5910 5910 5911 5912 5912 5912 5911 5911 5911 5910 5910 5910 5910 5910 5910 5910 5910 5909 5909 5909 5909 5910 5910 5910 5910 5910 5910 5910 5910 5909 5909 5909 5909 5909 5910 5910 5910 5910 5910
5900 5901 5901 5901 5901 5900 5900 5900 5900 5901 5901 5901 5901 5902 5903 5904 5905 5905 5906 5906 5907 5907 5906 5906 5907 5907 5907 5909 5909 5909 5908 5908 5908 5908 5908 5908 5909 5909 5909 5909 5909 5909 5909 5909 5909 5909 5910 5911 5911 5912 5913 5913 5912 5912 5911 5911 5910 5910 5910 5910 5910 5910 5910 5910 5910 5910 5910 5911 5911 5911 5911 5911 5911 5911 5911 5911 5911 5911 5911 5911 5911 5911 5911 5911 5910
5901 5901 5902 5901 5901 5901 5901 5901 5901 5902 5902 5902 5903 5903 5904 5905 5905 5906 5907 5907 5907 5907 5907 5907 5907 5907 5908 5908 5909 5909 5908 5908 5908 5908 5908 5908 5909 5909 5909 5909 5909 5909 5909 5909 5909 5910 5911 5911 5912 5912 5913 5913 5913 5912 5912 5911 5911 5911 5910 5910 5910 5910 5910 5911 5911 5911 5911 5911 5912 5912 5912 5912 5912 5912 5912 5912 5912 5912 5912 5912 5912 5912 5912 5911 5911
5901 5902 5902 5902 5902 5902 5902 5902 5902 5903 5903 5904 5905 5905 5906 5906 5907 5907 5907 5907 5908 5908 5908 5908 5908 5908 5908 5908 5908 5908 5908 5908 5908 5907 5908 5908 5909 5909 5909 5909 5910 5910 5910 5910 5910 5911 5911 5911 5912 5913 5914 5914 5914 5913 5912 5912 5911 5911 5911 5911 5910 5910 5910 5911 5911 5912 5912 5912 5912 5913 5913 5913 5913 5913 5913 5913 5913 5913 5913 5913 5913 5913 5913 5912 5912
5902 5902 5902 5903 5903 5903 5903 5904 5904 5905 5905 5905 5906 5906 5907 5907 5908 5908 5908 5908 5908 5909 5908 5908 5908 5908 5908 5908 5908 5908 5908 5908 5907 5907 5908 5909 5909 5908 5908 5910 5910 5910 5910 5911 5911 5911 5912 5912 5912 5913 5914 5914 5914 5914 5913 5912 5912 5912 5912 5911 5911 5910 5910 5911 5912 5912 5913 5913 5913 5914 5914 5914 5914 5914 5914 5914 5914 5914 5914 5914 5914 5914 5914 5913 5913
5903 5903 5904 5904 5905 5905 5905 5905 5906 5906 5906 5906 5907 5907 5907 5908 5908 5908 5909 5909 5909 5910 5909 5909 5909 5909 5909 5908 5908 5908 5908 5908 5908 5908 5909 5909 5908 5908 5909 5910 5911 5911 5911 5911 5912 5912 5912 5913 5913 5913 5914 5914 5914 5914 5914 5913 5913 5913 5912 5912 5911 5911 5911 5912 5913 5913 5913 5914 5914 5914 5914 5915 5915 5915 5915 5915 5915 5915 5915 5915 5915 5915 5914 5914 5913
5905 5905 5906 5906 5906 5906 5906 5906 5907 5907 5907 5908 5908 5908 5908 5909 5909 5909 5909 5910 5910 5911 5910 5910 5910 5910 5909 5908 5907 5907 5908 5908 5908 5908 5909 5909 5908 5908 5909 5910 5911 5911 5911 5912 5912 5913 5913 5913 5913 5914 5914 5915 5914 5914 5914 5914 5913 5913 5913 5913 5912 5912 5912 5912 5913 5914 5914 5914 5915 5915 5915 5915 5915 5916 5916 5916 5916 5916 5916 5916 5916 5915 5915 5914 5914
5907 5907 5908 5908 5908 5907 5907 5907 5908 5908 5908 5908 5909 5909 5909 5909 5909 5909 5910 5910 5911 5911 5911 5911 5910 5910 5909 5908 5907 5907 5908 5908 5908 5908 5908 5908 5908 5908 5909 5910 5911 5911 5912 5912 5912 5913 5913 5913 5914 5914 5915 5915 5915 5915 5915 5914 5914 5914 5914 5913 5913 5913 5913 5913 5914 5914 5915 5915 5915 5916 5916 5916 5916 5916 5917 5917 5917 5917 5917 5917 5916 5916 5915 5915 5914
5908 5909 5909 5909 5909 5908 5908 5908 5909 5909 5909 5909 5909 5910 5910 5910 5910 5910 5911 5911 5911 5911 5910 5910 5910 5909 5908 5908 5907 5907 5908 5908 5908 5908 5908 5908 5908 5908 5909 5910 5911 5912 5912 5912 5913 5913 5913 5914 5914 5914 5915 5915 5915 5915 5915 5915 5915 5914 5914 5914 5914 5914 5914 5914 5915 5915 5915 5916 5916 5916 5916 5916 5917 5917 5917 5918 5918 5917 5917 5917 5917 5916 5916 5915 5915
5909 5909 5909 5909 5909 5909 5909 5909 5909 5910 5910 5910 5910 5910 5911 5911 5911 5911 5911 5911 5911 5910 5910 5909 5909 5909 5908 5908 5907 5907 5908 5908 5908 5907 5908 5908 5908 5909 5910 5911 5911 5912 5912 5913 5913 5913 5913 5914 5914 5914 5915 5915 5916 5916 5916 5915 5915 5915 5915 5915 5914 5914 5914 5915 5916 5916 5916 5916 5916 5917 5917 5917 5918 5918 5918 5918 5918 5918 5918 5917 5917 5917 5917 5916 5916
5909 5909 5909 5909 5908 5908 5909 5909 5910 5910 5911 5911 5911 5911 5911 5911 5911 5911 5911 5911 5910 5910 5909 5909 5909 5908 5908 5908 5908 5907 5907 5907 5907 5907 5908 5909 5909 5910 5910 5911 5911 5912 5913 5913 5913 5913 5913 5914 5914 5915 5915 5915 5916 5916 5916 5916 5916 5915 5915 5915 5915 5915 5915 5915 5916 5917 5917 5917 5917 5918 5918 5918 5918 5919 5918 5918 5919 5918 5918 5918 5918 5918 5917 5917 5917
5909 5909 5909 5909 5909 5909 5910 5910 5911 5911 5912 5912 5912 5912 5912 5911 5911 5911 5910 5910 5910 5910 5909 5909 5908 5908 5908 5908 5908 5908 5907 5908 5908 5909 5909 5909 5910 5910 5911 5912 5912 5912 5913 5913 5913 5913 5914 5914 5915 5915 5915 5916 5916 5917 5916 5916 5916 5916 5916 5916 5916 5916 5916 5917 5917 5918 5918 5918 5918 5918 5919 5919 5919 5919 5919 5919 5919 5919 5919 5919 5918 5918 5918 5918 5918
5910 5910 5910 5910 5911 5911 5911 5912 5912 5912 5913 5913 5912 5912 5912 5912 5911 5911 5910 5910 5910 5910 5909 5909 5909 5909 5909 5909 5909 5909 5909 5909 5909 5910 5910 5910 5910 5911 5912 5912 5912 5912 5913 5913 5913 5914 5914 5915 5915 5916 5916 5916 5917 5917 5917 5917 5917 5917 5917 5917 5917 5917 5918 5918 5918 5919 5919 5919 5919 5920 5920 5920 5920 5920 5920 5920 5920 5920 5919 5919 5919 5919 5919 5919 5919
5910 5911 5911 5912 5912 5913 5913 5913 5914 5914 5914 5913 5913 5913 5913 5912 5912 5911 5911 5911 5911 5910 5910 5910 5910 5910 5911 5911 5911 5911 5911 5911 5911 5911 5911 5911 5911 5911 5912 5912 5912 5913 5913 5914 5914 5914 5915 5915 5916 5916 5917 5917 5917 5917 5917 5918 5918 5918 5918 5918 5918 5919 5919 5919 5920 5921 5921 5921 5921 5921 5921 5922 5922 5922 5921 5921 5921 5921 5920 5920 5920 5920 5920 5920 5920
5911 5912 5912 5913 5913 5913 5914 5914 5914 5914 5914 5914 5913 5913 5913 5913 5912 5912 5912 5912 5912 5911 5911 5912 5912 5912 5912 5912 5912 5912 5912 5912 5912 5912 5912 5912 5912 5912 5912 5913 5913 5914 5914 5914 5915 5915 5916 5916 5917 5917 5917 5918 5918 5918 5918 5918 5918 5918 5919 5919 5920 5920 5920 5921 5922 5923 5923 5923 5923 5923 5923 5923 5923 5923 5923 5922 5922 5922 5922 5922 5922 5922 5922 5922 5922
5912 5913 5913 5914 5914 5914 5914 5914 5915 5915 5914 5914 5914 5914 5913 5913 5914 5914 5914 5913 5913 5913 5913 5913 5913 5913 5913 5913 5913 5913 5913 5913 5913 5913 5913 5913 5913 5913 5913 5914 5914 5914 5915 5915 5916 5917 5917 5918 5918 5918 5918 5919 5919 5919 5919 5919 5919 5919 5920 5921 5921 5922 5922 5922 5924 5924 5924 5925 5925 5925 5925 5925 5925 5924 5924 5923 5923 5923 5923 5924 5924 5924 5924 5924 5924
5913 5914 5914 5915 5915 5915 5915 5915 5915 5915 5915 5915 5915 5914 5914 5914 5915 5915 5915 5915 5915 5914 5914 5915 5914 5914 5914 5914 5914 5914 5914 5914 5914 5914 5914 5914 5914 5914 5914 5914 5915 5916 5916 5917 5917 5918 5918 5919 5919 5919 5920 5920 5920 5920 5920 5921 5921 5921 5922 5922 5923 5923 5923 5924 5925 5926 5926 5926 5926 5926 5926 5926 5926 5926 5925 5925 5925 5925 5926 5926 5926 5926 5926 5926 5926
5915 5915 5916 5916 5916 5916 5916 5916 5916 5916 5916 5916 5915 5915 5915 5916 5916 5917 5917 5916 5916 5916 5916 5916 5916 5915 5915 5915 5915 5915 5915 5915 5915 5915 5915 5915 5915 5915 5915 5915 5916 5917 5917 5918 5919 5919 5920 5920 5920 5921 5921 5921 5922 5922 5922 5923 5923 5923 5924 5924 5924 5925 5925 5926 5927 5927 5928 5928 5928 5927 5927 5927 5927 5927 5927 5927 5927 5927 5928 5928 5928 5928 5928 5928 5928
5916 5916 5917 5917 5917 5917 5917 5917 5917 5917 5917 5917 5916 5916 5917 5917 5918 5918 5918 5918 5918 5918 5918 5917 5917 5916 5916 5916 5916 5916 5916 5916 5916 5916 5916 5916 5916 5916 5917 5917 5918 5918 5919 5920 5920 5921 5921 5922 5922 5922 5922 5923 5923 5924 5924 5924 5925 5925 5925 5926 5926 5926 5927 5928 5928 5929 5929 5929 5929 5929 5929 5928 5929 5929 5929 5929 5929 5929 5930 5930 5930 5930 5930 5930 5931
5917 5917 5918 5918 5917 5918 5918 5918 5919 5919 5918 5918 5917 5918 5918 5919 5920 5920 5920 5920 5919 5919 5919 5918 5918 5917 5917 5917 5917 5918 5918 5917 5917 5917 5917 5917 5917 5918 5918 5919 5919 5920 5920 5921 5922 5922 5923 5923 5924 5924 5924 5924 5925 5926 5926 5927 5927 5927 5927 5927 5928 5928 5928 5929 5929 5930 5930 5930 5930 5930 5930 5930 5930 5931 5931 5931 5931 5931 5931 5931 5932 5932 5932 5932 5932
5918 5918 5919 5919 5918 5919 5919 5920 5920 5920 5920 5919 5919 5919 5920 5920 5921 5921 5921 5921 5920 5920 5920 5920 5919 5919 5918 5918 5919 5919 5918 5918 5919 5918 5919 5919 5919 5919 5920 5920 5921 5922 5922 5923 5923 5924 5925 5925 5926 5926 5926 5926 5927 5927 5928 5929 5929 5929 5929 5929 5929 5929 5930 5930 5931 5931 5931 5931 5931 5931 5932 5932 5932 5932 5933 5933 5933 5933 5933 5933 5933 5933 5933 5934 5934
5919 5919 5920 5920 5920 5920 5920 5921 5921 5921 5920 5920 5919 5920 5921 5921 5922 5922 5922 5922 5922 5921 5921 5921 5920 5920 5920 5920 5920 5920 5920 5920 5920 5920 5920 5920 5921 5921 5921 5922 5923 5923 5924 5925 5925 5926 5926 5927 5927 5928 5928 5928 5928 5929 5930 5930 5930 5930 5930 5930 5930 5931 5931 5932 5932 5932 5932 5932 5933 5933 5934 5934 5934 5934 5934 5934 5934 5934 5934 5935 5935 5935 5935 5935 5934
5920 5921 5921 5921 5921 5921 5921 5922 5922 5922 5921 5921 5921 5921 5922 5922 5923 5923 5923 5923 5923 5922 5922 5922 5922 5922 5922 5922 5921 5921 5921 5921 5921 5921 5922 5922 5923 5923 5923 5924 5925 5925 5926 5927 5927 5928 5928 5929 5929 5929 5930 5930 5930 5930 5931 5931 5932 5932 5932 5931 5932 5932 5933 5934 5934 5933 5934 5934 5935 5935 5935 5935 5936 5936 5936 5936 5936 5936 5936 5936 5936 5936 5936 5936 5936
5921 5921 5921 5922 5922 5922 5922 5922 5922 5923 5923 5922 5922 5922 5923 5923 5924 5924 5924 5924 5924 5923 5923 5923 5923 5923 5924 5923 5923 5923 5923 5923 5923 5923 5923 5924 5924 5925 5925 5926 5926 5927 5928 5929 5929 5930 5930 5931 5931 5931 5932 5932 5932 5932 5932 5932 5933 5933 5933 5933 5933 5934 5934 5935 5935 5935 5935 5936 5936 5937 5937 5937 5937 5937 5937 5937 5937 5937 5937 5937 5937 5937 5937 5937 5937
5922 5922 5922 5922 5923 5923 5923 5923 5923 5924 5924 5923 5923 5924 5924 5924 5925 5925 5925 5925 5925 5925 5924 5924 5924 5924 5925 5925 5924 5924 5924 5924 5924 5925 5925 5925 5926 5926 5927 5928 5928 5929 5930 5931 5931 5932 5932 5932 5933 5933 5933 5933 5933 5933 5934 5934 5934 5935 5935 5935 5934 5935 5936 5936 5936 5936 5937 5937 5938 5938 5938 5939 5939 5939 5939 5938 5938 5938 5938 5938 5938 5938 5938 5938 5938
5923 5923 5923 5923 5924 5924 5924 5924 5924 5925 5925 5925 5925 5925 5925 5925 5926 5926 5926 5926 5926 5926 5926 5926 5926 5926 5926 5926 5926 5926 5926 5926 5926 5927 5927 5927 5928 5928 5929 5930 5931 5932 5933 5933 5933 5933 5934 5934 5935 5935 5935 5935 5935 5935 5935 5935 5936 5936 5936 5936 5936 5937 5937 5937 5937 5938 5938 5939 5939 5940 5940 5940 5940 5940 5940 5940 5940 5940 5940 5939 5939 5939 5939 5939 5939
5924 5925 5925 5925 5925 5925 5926 5926 5926 5926 5926 5926 5926 5926 5926 5926 5927 5927 5927 5927 5928 5928 5928 5928 5928 5928 5928 5928 5928 5928 5928 5929 5929 5929 5930 5930 5931 5931 5932 5932 5933 5934 5935 5935 5935 5935 5935 5935 5936 5937 5937 5937 5937 5937 5937 5937 5938 5938 5937 5937 5937 5938 5939 5939 5939 5940 5940 5941 5941 5941 5942 5942 5942 5942 5942 5942 5941 5941 5941 5941 5941 5941 5941 5941 5940
5926 5926 5927 5927 5927 5927 5927 5927 5927 5928 5928 5928 5928 5928 5928 5928 5928 5928 5928 5928 5929 5929 5930 5930 5930 5930 5931 5930 5930 5930 5931 5931 5931 5932 5932 5933 5933 5934 5934 5934 5935 5936 5936 5937 5937 5937 5937 5937 5937 5938 5938 5939 5938 5938 5939 5939 5939 5939 5939 5939 5939 5940 5940 5940 5941 5941 5942 5943 5943 5943 5943 5943 5943 5944 5944 5943 5943 5943 5943 5943 5943 5942 5942 5942 5942
5927 5928 5928 5928 5928 5928 5928 5929 5929 5929 5929 5929 5929 5930 5930 5930 5930 5929 5930 5930 5930 5931 5931 5931 5931 5932 5932 5932 5932 5932 5932 5933 5933 5934 5934 5935 5935 5935 5936 5936 5937 5937 5938 5938 5938 5938 5939 5939 5939 5940 5940 5940 5940 5940 5941 5940 5940 5941 5941 5940 5941 5941 5942 5942 5943 5944 5944 5944 5945 5945 5945 5945 5945 5945 5945 5945 5945 5945 5945 5945 5945 5944 5944 5943 5943
5929 5929 5929 5929 5929 5929 5930 5930 5930 5930 5931 5931 5931 5931 5931 5931 5931 5931 5931 5931 5931 5932 5932 5932 5932 5933 5933 5933 5933 5933 5934 5934 5935 5935 5936 5936 5936 5937 5937 5938 5938 5938 5938 5939 5939 5940 5940 5941 5941 5941 5941 5941 5941 5942 5943 5943 5942 5942 5942 5942 5942 5942 5943 5944 5945 5946 5946 5946 5946 5946 5947 5947 5947 5947 5947 5947 5947 5946 5946 5946 5946 5946 5945 5944 5944
5930 5930 5930 5930 5931 5931 5931 5932 5932 5932 5932 5932 5932 5932 5932 5933 5933 5933 5932 5933 5933 5933 5933 5934 5934 5934 5934 5934 5934 5934 5934 5935 5935 5936 5937 5937 5938 5938 5938 5939 5939 5939 5940 5940 5940 5941 5942 5942 5942 5942 5942 5942 5943 5943 5944 5945 5944 5944 5943 5943 5944 5944 5945 5946 5946 5947 5947 5947 5947 5948 5948 5949 5948 5948 5948 5948 5948 5948 5948 5948 5947 5947 5946 5946 5945
5931 5932 5932 5932 5932 5932 5932 5933 5933 5933 5933 5933 5933 5934 5934 5934 5934 5934 5934 5934 5934 5935 5935 5935 5935 5935 5935 5935 5935 5935 5936 5936 5936 5937 5937 5938 5939 5939 5939 5940 5940 5941 5941 5941 5942 5942 5943 5943 5943 5943 5943 5944 5944 5945 5946 5946 5946 5945 5945 5945 5946 5946 5947 5947 5948 5948 5948 5949 5949 5949 5950 5950 5950 5949 5949 5949 5949 5949 5949 5949 5948 5948 5947 5947 5946
5932 5933 5933 5933 5933 5933 5933 5933 5933 5933 5934 5934 5934 5935 5935 5935 5935 5935 5935 5935 5936 5936 5937 5937 5937 5937 5937 5937 5937 5937 5937 5937 5937 5937 5938 5939 5940 5940 5941 5941 5942 5942 5943 5943 5943 5944 5944 5944 5944 5945 5945 5945 5946 5946 5947 5948 5948 5947 5947 5947 5948 5948 5949 5949 5950 5950 5950 5950 5950 5951 5951 5951 5951 5951 5951 5951 5951 5950 5950 5950 5950 5949 5949 5948 5947
5932 5934 5934 5934 5934 5934 5934 5934 5934 5935 5935 5935 5935 5935 5936 5936 5937 5936 5937 5937 5937 5938 5938 5938 5938 5938 5938 5938 5938 5939 5939 5939 5939 5939 5940 5940 5941 5942 5942 5943 5943 5943 5944 5944 5945 5945 5945 5946 5946 5946 5946 5946 5947 5948 5949 5949 5949 5948 5948 5949 5949 5950 5950 5951 5952 5952 5951 5951 5952 5952 5952 5952 5952 5952 5952 5952 5952 5952 5952 5951 5951 5950 5950 5949 5948
5933 5934 5935 5935 5935 5935 5935 5935 5935 5936 5936 5936 5936 5936 5937 5938 5938 5938 5938 5938 5938 5939 5939 5939 5939 5940 5939 5940 5940 5940 5940 5940 5941 5941 5941 5942 5942 5943 5943 5944 5944 5945 5945 5946 5946 5947 5947 5947 5947 5948 5947 5947 5948 5949 5950 5950 5950 5950 5950 5950 5950 5951 5951 5952 5953 5953 5953 5953 5953 5953 5953 5953 5954 5954 5954 5954 5954 5953 5953 5953 5952 5951 5951 5950 5949
5934 5934 5935 5936 5936 5936 5936 5936 5937 5937 5937 5937 5937 5938 5938 5939 5939 5939 5940 5940 5940 5940 5940 5940 5941 5941 5941 5941 5942 5942 5942 5942 5942 5942 5943 5943 5944 5944 5944 5945 5946 5946 5947 5948 5948 5948 5948 5949 5949 5949 5949 5949 5950 5950 5951 5952 5951 5951 5951 5951 5951 5952 5952 5953 5954 5954 5954 5953 5954 5954 5955 5955 5955 5955 5955 5955 5955 5955 5954 5953 5953 5952 5951 5951 5950
5934 5934 5935 5936 5936 5937 5937 5937 5938 5938 5938 5938 5939 5939 5939 5940 5940 5941 5941 5941 5941 5941 5941 5942 5942 5942 5943 5943 5943 5943 5943 5943 5943 5944 5944 5944 5945 5946 5946 5946 5947 5947 5948 5949 5949 5949 5950 5950 5950 5950 5951 5951 5951 5952 5953 5953 5953 5952 5952 5953 5953 5953 5953 5954 5955 5955 5955 5955 5955 5955 5956 5956 5956 5956 5956 5956 5956 5955 5955 5954 5954 5953 5952 5951 5950
5934 5935 5936 5936 5937 5937 5938 5938 5938 5939 5939 5940 5940 5940 5940 5941 5941 5942 5942 5942 5942 5943 5943 5943 5943 5943 5944 5944 5944 5944 5944 5944 5945 5945 5946 5946 5946 5947 5947 5948 5948 5949 5949 5950 5950 5950 5951 5951 5952 5952 5952 5952 5952 5953 5953 5954 5954 5954 5954 5954 5954 5954 5955 5956 5956 5957 5956 5956 5956 5956 5956 5957 5957 5957 5957 5957 5957 5956 5956 5955 5954 5953 5952 5952 5951
5935 5935 5936 5936 5937 5938 5938 5938 5939 5939 5940 5940 5941 5941 5941 5941 5942 5942 5943 5943 5943 5944 5944 5944 5944 5944 5945 5945 5945 5946 5946 5946 5946 5946 5947 5947 5947 5948 5948 5948 5949 5949 5950 5950 5951 5951 5951 5952 5953 5953 5953 5953 5953 5954 5954 5955 5955 5955 5955 5956 5956 5956 5956 5957 5958 5958 5958 5958 5958 5957 5957 5958 5958 5958 5958 5957 5957 5957 5956 5956 5955 5954 5953 5952 5951
5935 5936 5936 5937 5938 5938 5939 5939 5939 5940 5941 5941 5942 5942 5942 5942 5942 5943 5943 5944 5944 5944 5945 5945 5945 5945 5946 5946 5947 5947 5947 5947 5947 5947 5947 5948 5948 5948 5948 5949 5949 5950 5950 5951 5951 5952 5952 5953 5953 5954 5954 5954 5954 5954 5955 5955 5956 5956 5956 5957 5957 5957 5958 5958 5958 5959 5959 5959 5959 5959 5959 5959 5959 5959 5959 5958 5958 5957 5957 5956 5956 5955 5953 5952 5952
5935 5936 5937 5938 5939 5939 5939 5940 5940 5941 5942 5942 5942 5943 5943 5943 5944 5944 5944 5944 5945 5945 5946 5946 5946 5947 5947 5947 5948 5948 5948 5948 5947 5948 5948 5948 5949 5949 5949 5949 5950 5950 5951 5951 5952 5953 5953 5953 5954 5955 5955 5955 5955 5955 5955 5956 5957 5957 5958 5958 5958 5959 5959 5959 5959 5959 5960 5960 5960 5960 5960 5960 5960 5960 5959 5959 5958 5958 5957 5957 5956 5955 5954 5953 5952
5936 5937 5938 5939 5939 5939 5940 5940 5941 5942 5943 5943 5943 5944 5944 5944 5945 5945 5945 5945 5946 5946 5947 5947 5948 5948 5948 5948 5949 5949 5949 5949 5948 5948 5949 5949 5949 5949 5950 5950 5950 5951 5952 5952 5953 5954 5954 5955 5955 5956 5956 5956 5956 5956 5956 5957 5958 5958 5959 5959 5959 5960 5960 5960 5960 5960 5960 5960 5960 5960 5960 5960 5960 5960 5960 5959 5959 5958 5958 5957 5956 5955 5954 5953 5952
5936 5937 5938 5939 5939 5940 5940 5941 5942 5942 5943 5943 5944 5944 5945 5945 5945 5945 5946 5946 5947 5947 5948 5948 5949 5949 5949 5949 5949 5950 5950 5950 5949 5950 5950 5950 5950 5950 5950 5951 5951 5951 5952 5953 5954 5954 5955 5956 5956 5956 5957 5957 5957 5957 5957 5958 5959 5960 5960 5960 5960 5960 5961 5961 5961 5961 5961 5961 5960 5960 5960 5961 5961 5961 5960 5960 5959 5959 5958 5957 5956 5956 5955 5953 5952
5937 5937 5938 5938 5939 5940 5941 5941 5942 5943 5943 5944 5944 5945 5945 5946 5946 5946 5946 5947 5947 5948 5948 5949 5949 5950 5950 5950 5950 5950 5951 5951 5951 5951 5951 5951 5951 5951 5951 5951 5951 5952 5953 5953 5954 5955 5956 5956 5957 5957 5957 5957 5958 5958 5958 5958 5959 5960 5960 5960 5960 5960 5961 5961 5960 5960 5961 5960 5960 5960 5960 5961 5961 5961 5960 5960 5959 5959 5958 5957 5957 5956 5955 5953 5952
5937 5937 5938 5938 5939 5940 5941 5942 5942 5943 5943 5944 5945 5945 5946 5946 5947 5947 5947 5948 5948 5948 5949 5949 5950 5950 5950 5951 5951 5951 5952 5952 5952 5952 5952 5952 5952 5952 5952 5952 5952 5953 5953 5954 5955 5955 5956 5956 5957 5957 5958 5958 5959 5959 5959 5959 5959 5960 5961 5961 5961 5961 5961 5961 5961 5961 5960 5960 5961 5961 5961 5961 5961 5961 5960 5960 5959 5959 5958 5957 5956 5955 5954 5953 5952
5937 5938 5938 5939 5939 5940 5941 5941 5942 5943 5943 5944 5945 5946 5946 5947 5948 5948 5948 5949 5949 5949 5949 5950 5950 5951 5951 5951 5951 5952 5952 5953 5953 5953 5953 5953 5953 5953 5953 5954 5954 5954 5955 5955 5955 5956 5956 5957 5957 5957 5958 5959 5959 5960 5959 5959 5960 5960 5961 5962 5962 5962 5962 5962 5961 5961 5961 5961 5961 5961 5961 5961 5961 5960 5960 5960 5959 5959 5958 5957 5956 5955 5954 5953 5952
5937 5938 5939 5939 5940 5940 5941 5942 5942 5943 5943 5944 5945 5946 5947 5948 5948 5949 5949 5950 5950 5950 5950 5951 5951 5951 5951 5952 5952 5952 5953 5953 5953 5954 5954 5954 5954 5954 5954 5955 5955 5955 5956 5956 5956 5957 5957 5957 5957 5958 5958 5959 5960 5960 5960 5960 5960 5961 5962 5962 5962 5962 5962 5962 5962 5961 5961 5961 5960 5960 5961 5961 5961 5960 5959 5959 5959 5958 5957 5957 5955 5954 5954 5953 5952
5936 5937 5939 5940 5940 5940 5941 5942 5942 5943 5944 5944 5945 5946 5947 5948 5949 5949 5950 5950 5951 5951 5951 5952 5952 5952 5952 5952 5953 5953 5953 5953 5954 5954 5954 5955 5955 5955 5955 5956 5956 5956 5957 5957 5957 5957 5958 5958 5958 5958 5959 5959 5960 5960 5960 5961 5961 5962 5962 5962 5962 5962 5961 5961 5961 5961 5961 5961 5960 5960 5960 5960 5960 5960 5959 5958 5958 5957 5957 5956 5954 5953 5953 5952 5951
5936 5937 5938 5939 5940 5941 5941 5942 5942 5943 5944 5944 5945 5946 5947 5948 5949 5950 5950 5951 5951 5951 5952 5952 5953 5953 5953 5953 5953 5954 5954 5954 5954 5955 5955 5955 5955 5955 5956 5956 5957 5957 5957 5958 5958 5958 5959 5959 5959 5959 5959 5960 5960 5960 5961 5961 5962 5962 5962 5962 5962 5962 5961 5961 5961 5961 5961 5960 5960 5960 5959 5959 5959 5959 5958 5957 5957 5956 5955 5955 5954 5953 5952 5951 5951
5935 5936 5937 5939 5940 5941 5941 5942 5942 5943 5944 5944 5945 5946 5947 5947 5948 5949 5950 5951 5951 5952 5952 5952 5953 5953 5953 5954 5954 5954 5954 5954 5955 5955 5955 5955 5956 5956 5956 5956 5957 5957 5957 5958 5958 5959 5959 5959 5959 5960 5960 5960 5960 5960 5961 5961 5962 5962 5962 5962 5962 5961 5961 5961 5961 5961 5960 5960 5960 5959 5959 5959 5958 5957 5957 5956 5956 5955 5955 5954 5953 5953 5952 5951 5950
5934 5936 5937 5938 5939 5940 5941 5942 5942 5943 5943 5944 5945 5945 5946 5947 5948 5949 5950 5950 5951 5951 5952 5952 5953 5953 5954 5954 5954 5954 5955 5955 5955 5955 5955 5956 5956 5956 5956 5956 5957 5957 5957 5958 5958 5959 5959 5960 5960 5960 5960 5961 5961 5961 5961 5962 5962 5962 5962 5962 5961 5961 5961 5961 5960 5960 5960 5960 5959 5959 5959 5958 5957 5956 5956 5955 5955 5955 5954 5954 5953 5952 5951 5950 5949